Home   Weather   Fukuoka   Past weeks

Flag for Japan Past Weather in Fukuoka, Japan — Yesterday and Last 2 Weeks

Now
41 °F

Passing clouds.


Feels Like: 39 °F
Forecast: 42 / 57 °F
Wind: 3 mph from Southeast

Location: Fukuoka Airport

Current Time: Dec 11, 2016 at 9:19:08 am

Latest Report: Dec 11, 2016 at 8:30 am


Visibility: N/A

Pressure: 30.27 "Hg

Humidity: 76%

Dew Point: 34 °F

Location of FukuokaLocation

Past Weather in Fukuoka — Graph

°F

Fukuoka Temperature Yesterday

Maximum temperature yesterday: 57 °F (at 12:00 pm)
Minimum temperature yesterday: 41 °F (at 7:00 am)
Average temperature yesterday: 49 °F

High & Low Weather Summary for the Past Weeks

 TemperatureHumidityPressure
High63 °F (Dec 3, 2:30 pm)94% (Nov 27, 1:00 am)30.42 "Hg (Nov 27, 1:00 am)
Low37 °F (Dec 7, 2:30 am)27% (Dec 3, 3:00 pm)29.95 "Hg (Nov 27, 2:00 pm)
Average52 °F65%30.17 "Hg
* Reported Nov 26 8:00 am — Dec 11 8:00 am, Fukuoka, Weather by CustomWeather, © 2016

Note: Actual official high and low records may vary slightly from our data, if they occured in-between our weather recording intervals... More about our weather records

Advertising

Fukuoka Weather History for the Previous 24 Hours

Scroll right to see more
 ConditionsComfort  
Time TempWeatherWind HumidityBarometerVisibility
8:00 am
Sun, Dec 11
39 °FSunny.3 mph81%30.27 "Hg10 mi
7:30 am39 °FSunny.3 mph75%30.27 "Hg10 mi
7:00 am39 °FPassing clouds.3 mph75%30.27 "HgN/A
6:30 am39 °FPassing clouds.2 mph75%30.24 "HgN/A
6:00 am39 °FPassing clouds.6 mph75%30.24 "HgN/A
5:30 am37 °FClear.6 mph81%30.21 "Hg10 mi
5:00 am37 °FClear.5 mph81%30.21 "Hg10 mi
4:30 am37 °FClear.3 mph87%30.21 "Hg10 mi
4:00 am41 °FPassing clouds.2 mph76%30.21 "HgN/A
3:30 am41 °FPassing clouds.2 mph81%30.21 "HgN/A
3:00 am41 °FPassing clouds.3 mph81%30.21 "HgN/A
2:30 am41 °FPassing clouds.2 mph81%30.21 "HgN/A
2:00 am39 °FPassing clouds.2 mph81%30.21 "HgN/A
1:30 am41 °FClear.3 mph76%30.18 "Hg10 mi
1:00 am41 °FClear.5 mph81%30.18 "Hg10 mi
12:30 am43 °FClear.1 mph76%30.18 "Hg10 mi
12:00 am43 °FPassing clouds.1 mph81%30.18 "HgN/A
11:30 pm
Sat, Dec 10
43 °FPassing clouds.2 mph76%30.18 "HgN/A
11:00 pm45 °FPassing clouds.1 mph71%30.18 "HgN/A
10:30 pm45 °FClear.1 mph71%30.18 "Hg10 mi
10:00 pm46 °FPassing clouds.5 mph66%30.18 "HgN/A
9:30 pm46 °FPassing clouds.3 mph66%30.18 "HgN/A
9:00 pm48 °FPassing clouds.6 mph62%30.18 "HgN/A
8:30 pm50 °FPassing clouds.6 mph58%30.18 "HgN/A
8:00 pm52 °FPassing clouds.9 mph54%30.18 "HgN/A
7:30 pm52 °FPassing clouds.8 mph54%30.18 "HgN/A
7:00 pm54 °FPassing clouds.7 mph47%30.15 "HgN/A
6:30 pm54 °FPassing clouds.8 mph47%30.15 "HgN/A
6:00 pm52 °FPassing clouds.8 mph50%30.15 "HgN/A
5:30 pm54 °FPassing clouds.7 mph44%30.15 "HgN/A
5:00 pm54 °FBroken clouds.9 mph47%30.15 "HgN/A
4:30 pm54 °FBroken clouds.9 mph47%30.12 "HgN/A
4:00 pm55 °FBroken clouds.12 mph44%30.12 "HgN/A
3:30 pm55 °FBroken clouds.10 mph47%30.12 "HgN/A
3:00 pm55 °FScattered clouds.8 mph38%30.12 "HgN/A
2:30 pm57 °FScattered clouds.9 mph39%30.12 "HgN/A
2:00 pm55 °FScattered clouds.9 mph36%30.12 "HgN/A
1:30 pm57 °FScattered clouds.10 mph36%30.12 "HgN/A
1:00 pm57 °FScattered clouds.12 mph36%30.12 "HgN/A
12:30 pm57 °FScattered clouds.9 mph36%30.12 "HgN/A
12:00 pm57 °FScattered clouds.9 mph39%30.15 "HgN/A
11:30 am55 °FPassing clouds.5 mph44%30.15 "HgN/A
11:00 am55 °FScattered clouds.3 mph47%30.18 "HgN/A
10:30 am54 °FPassing clouds.2 mph51%30.18 "HgN/A
10:00 am52 °FPassing clouds.3 mph54%30.18 "HgN/A
9:30 am50 °FPassing clouds.3 mph62%30.18 "HgN/A
9:00 am46 °FPassing clouds.6 mph76%30.18 "HgN/A
Weather by CustomWeather, © 2016

See weather overviewHow to use our weather pages